Showing default

DOVE 3, 39429

Orbit data source: Space-Track

DOVE 3, 39429 is a payload satellite owned by Planet Labs (US) in SSO that was launched on Thu, 21 Nov 2013 UTC via a DNEPR launch vehicle from the Orenburg, Russia (OREN). Payload-class satellites include a variety of spacecraft equipped with specific instruments for various scientific and technological missions. These include communications satellites like Starlink; space stations such as the ISS; scientific satellites like the Hubble; Earth observation satellites from companies like Planet Labs, Umbra, and HawkEye 360; GPS; miniature CubeSats for education and research; and military/defense satellites.

Loading next visibility...
Identifier
39429, 2013-066P
Orbit
SSO
Country
Flag of USUS
Related business
Manufacturer
Planet Labs
Mission
Non-operational Commercial Imaging
Bus & Motor
CUBESAT 3U, Unknown motor
Mass
5.2 kg wet, 5.2 kg dry
Launch date (UTC)
2013-11-21 (12 years ago)
Launch vehicle
DNEPR
Launch site
Orenburg, Russia (OREN)
Object type
Payload
Rocket body
Debris
Shape & HBR
Box, 1.0 m
Radar Cross Section
0.092 m², Small (<0.1 m²)

Expand to show TLE details & history
Last TLE update: 22 hours ago

TLE from 22 hours ago
0 DOVE 3
1 39429U 13066P   25300.61808946  .00003921  00000-0  53449-3 0  9998
2 39429  97.6881 167.1880 0118908  58.7172 302.5618 14.74387171636717
Epoch: 2025-10-27T14:50Z
TLE epoch observation values (Epoch: 2025-10-27T14:50:02.929Z)
Latitude
-0.00001°
Longitude
-91.54155°
Altitude
605.861 km
Speed
7.58 km/s
True Right ascension
11h 08m 45s
True Declination
0° 00' 00"
Sunlit
Object was in daylight at epoch
Visualization orbit readout
Latitude
Unknown
Longitude
Unknown
Altitude
Unknown
Speed
Unknown
Apparent Right ascension
Unknown
Apparent Declination
Unknown
Sunlit
N/A
Visualization observer readout
Local Sidereal Time
07:53:09
Azimuth
Unknown
Elevation
Unknown
Doppler factor
Unknown
Orbital elements
Apogee altitude
727.636 km
Perigee altitude
560.635 km
Semi-major axis
7,022.273 km
Eccentricity
0.01189
Inclination
97.6881°
RAAN
167.188°
Arg. of periapsis
58.7172°
True anomaly
301.40422°
Mean anomaly
302.5618°
Eccentric anomaly
301.98393°
Mean motion
3.6883 °/min
Orbital period
97.61 mins
BSTAR
0.00053449
Loading maneuver chart data...
Computing Atmospheric mass density...
Loading historical data...
Loading historical data...
Loading historical data...
Loading historical data...
Loading historical data...
Loading historical data...
Loading historical data...

Documentation

Showing up to 5 results
|